Regional Weather Roundup
Issued by NWS

Home | Current Version | Previous Version | Graphics & Text | Print | Product List | Glossary On
Versions: 1 2 3 4 5 6 7 8 9 10 11 12 13 14 15 16 17 18 19 20 21 22 23 24 25 26 27 28 29 30 31 32 33 34 35 36 37 38 39 40 41 42 43 44 45 46 47
000
ASUS45 KBOU 190607
RWRCO

WEATHER ROUNDUP FOR COLORADO
NATIONAL WEATHER SERVICE DENVER/BOULDER CO
1200 AM MDT FRI SEP 19 2014

NOTE: "FAIR" INDICATES FEW OR NO CLOUDS BELOW 12000 FEET WITH NO
SIGNIFICANT WEATHER AND/OR OBSTRUCTIONS TO VISIBILITY.

COZ001>005-013-030-031-190700-
...NORTHWEST COLORADO...

CITY           SKY/WX    TMP DP  RH WIND       PRES   REMARKS
CRAIG          CLEAR     51  42  71 CALM      30.04R
HAYDEN         CLEAR     57  37  47 E9        30.05S
MEEKER         CLEAR     53  39  59 NE7       30.07R
MOUNT WERNER   NOT AVBL
STEAMBOAT SPGS CLEAR     55  40  58 CALM      30.09R
WALDEN         MOCLDY    46  36  66 SE7       30.16R
$$

COZ006>008-011-190700-
...WEST CENTRAL VALLEYS...

CITY           SKY/WX    TMP DP  RH WIND       PRES   REMARKS
GRAND JUNCTION CLEAR     65  44  46 SE5       29.93R
MONTROSE       PTCLDY    62  43  49 SE8       30.04R
EAGLE          CLEAR     57  41  54 E6        30.10R
RIFLE          CLEAR     58  43  57 CALM      30.01R
DELTA          CLEAR     65  45  47 NE5       29.99R
NUCLA          CLEAR     63  41  45 E12       30.07S
$$

COZ017>023-064>068-190700-
...SOUTHWEST COLORADO...

CITY           SKY/WX    TMP DP  RH WIND       PRES   REMARKS
DURANGO        CLEAR     51  40  65 NE3       30.10R
CORTEZ         CLEAR     53  44  71 E6        30.05R
PAGOSA SPRINGS CLEAR     56  33  42 CALM      30.20R
TELLURIDE      NOT AVBL
WOLF CREEK PAS CLEAR     45  28  53 SW14G20   30.48S
$$

COZ009-010-012-014-032>034-037-058>063-190700-
...CENTRAL COLORADO...

CITY           SKY/WX    TMP DP  RH WIND       PRES   REMARKS
ASPEN          CLEAR     52  38  58 SW8       30.17S
BUENA VISTA    CLEAR     51  29  43 W3        30.23S
COPPER MTN     NOT AVBL
BERTHOUD PASS  FAIR      43  41  93 W8G17     30.54F
COTTONWOOD PAS CLEAR     61  25  25 SE8       30.35S
GUNNISON       CLEAR     52  34  50 N3        30.20S
KREMMLING      CLOUDY    50  36  57 E3        30.16R
LEADVILLE      CLEAR     47  26  44 NE6       30.34S
MONARCH PASS   CLEAR     48  28  46 S17       30.59F
SALIDA         CLEAR     60  29  31 SW10      30.27S
SUNLIGHT       CLEAR     54  34  47 CALM      30.41S
WILKERSON PASS NOT AVBL
$$

COZ069>075-190700-
...SAN LUIS VALLEY/SANGRE DE CRISTO MOUNTAINS...

CITY           SKY/WX    TMP DP  RH WIND       PRES   REMARKS
ALAMOSA        CLEAR     51  38  60 SE6       30.18S
LA VETA PASS   CLEAR     54  30  40 E8        30.37F
SAGUACHE       NOT AVBL
$$

COZ035-036-038>040-190700-
...NORTHERN COLORADO FRONT RANGE...

CITY           SKY/WX    TMP DP  RH WIND       PRES   REMARKS
DENVER INTL AP CLEAR     71  40  32 SW20      29.97S
DMNS CITY PARK   N/A     71  35  26 S10       29.97R
AURORA         CLEAR     68  40  36 S22       30.00R
FRONT RANGE AP CLEAR     72  41  33 S16       29.99S
ERIE MUNI ARPT CLEAR     66  37  33 S10       29.93S
BOULDER MUN AP CLEAR     63  43  48 CALM      29.94S
CENTENNIAL     CLEAR     70  36  28 S20G26    30.01S
BROOMFIELD     CLEAR     66  37  34 S6        29.98S
FORT COLLINS   CLEAR     61  46  59 NW5       29.93S
LONGMONT       CLEAR     58  44  60 NW5       29.95R
$$

COZ041-046-047-076>085-087-088-190700-
...PIKES PEAK/PALMER DIVIDE AND SOUTHERN FOOTHILLS...

CITY           SKY/WX    TMP DP  RH WIND       PRES   REMARKS
COLO. SPRINGS  CLEAR     62  43  49 E8        30.11S
A. F. ACADEMY  CLEAR     58  38  47 CALM      30.11F
ELLICOTT       NOT AVBL
FALCON         CLEAR     53  43  68 CALM      30.16S
FORT CARSON    CLEAR     63  45  52 S7        30.08S
LIMON          CLEAR     63  50  62 S10       30.03F
MONUMENT HILL  CLEAR     63  37  39 S18G25    30.11F
TRINIDAD       CLEAR     61  52  72 SW9       30.09F
$$

COZ042>045-048>051-090-091-190700-
...NORTHEAST COLORADO...

CITY           SKY/WX    TMP DP  RH WIND       PRES   REMARKS
GREELEY ARPT   CLEAR     64  39  39 CALM      29.92R
AKRON          CLEAR     70  51  51 S20G26    29.94F
BURLINGTON     CLEAR     68  55  63 SW15      29.98S
WRAY           CLEAR     65  55  71 SW8       29.91S
STERLING       CLEAR     61  55  82 SW5       29.89S
HOLYOKE          N/A     59  55  88 SE7       29.90F FOG
FORT MORGAN    CLEAR     70  47  42 S15       29.93S
$$

COZ086-089-092>099-190700-
...SOUTHEAST COLORADO...

CITY           SKY/WX    TMP DP  RH WIND       PRES   REMARKS
PUEBLO         CLEAR     63  50  62 E8        30.00R
LA JUNTA       CLEAR     68  57  68 SW10      29.99S
LAMAR          CLEAR     60  55  83 SE3       29.97S
SPRINGFIELD      N/A     61  60  97 S13       30.05R
$$



USA.gov is the U.S. government's official web portal to all federal, state and local government web resources and services.